Akron, CO

9:40 PM MDT on September 20, 2017 (GMT -0600)
Akron-Washington County

Weather History for KAKO - September, 2014

Change the Weather History Date:

Wednesday, September 24, 2014

  Actual Average Record
Temperature  
Mean Temperature 69 °F 59 °F  
Max Temperature 84 °F 73 °F 91 °F (1966)
Min Temperature 54 °F 45 °F 27 °F (1985)
Degree Days  
Heating Degree Days 0    
Month to date heating degree days 90  
Cooling Degree Days 4    
Month to date cooling degree days 66  
Growing Degree Days 18 (Base 50)    
Moisture  
Dew Point 46 °F    
Average Humidity 50    
Maximum Humidity 77    
Minimum Humidity 22    
Precipitation  
Precipitation 0.00 in 0.04 in 1.03 in (1959)
Month to date precipitation 0.83 0.94  
Year to date precipitation 16.43 14.43  
Sea Level Pressure  
Sea Level Pressure 30.06 in    
Wind  
Wind Speed 9 mph (WSW)    
Max Wind Speed 15 mph    
Max Gust Speed 20 mph    
Visibility 10 miles    
Events      
T = Trace of Precipitation, MM = Missing Value Source: NWS Daily Summary

Daily Weather History Graph

Daily Weather History Graph

Search for Another Location

Airport or City:

Trip Planner

Search our weather history database for the weather conditions in past years. The results will help you decide how hot, cold, wet, or windy it might be!

Date:

Astronomy

Sep. 24, 2014 Rise Set
Actual Time 6:42 AM MDT 6:46 PM MDT
Civil Twilight 6:15 AM MDT 7:13 PM MDT
Nautical Twilight 5:43 AM MDT 7:45 PM MDT
Astronomical Twilight 5:11 AM MDT 8:17 PM MDT
Moon 7:05 AM MDT (9/24) 6:58 PM MDT (9/24)
Length of Visible Light 12h 58m
Length of Day
12h 04m
New Moon, 0% of the Moon is Illuminated
Sep 24
New Moon
Oct 1
First Quarter
Oct 8
Full
Oct 15
Last Quarter
Oct 23
New

Hourly Weather History & Observations

Time (MDT) Temp. Dew Point Humidity Pressure Visibility Wind Dir Wind Speed Gust Speed Precip Events Conditions
12:53 AM 59.0 °F 48.9 °F 69% 30.01 in 10.0 mi West 9.2 mph - N/A   Clear
1:53 AM 57.9 °F 46.9 °F 67% 30.02 in 10.0 mi West 9.2 mph - N/A   Clear
2:53 AM 57.9 °F 48.0 °F 70% 30.02 in 10.0 mi WSW 10.4 mph - N/A   Clear
3:53 AM 57.0 °F 46.9 °F 69% 30.02 in 10.0 mi WSW 11.5 mph - N/A   Clear
4:53 AM 57.0 °F 46.0 °F 67% 30.03 in 10.0 mi West 15.0 mph - N/A   Clear
5:53 AM 55.9 °F 46.0 °F 69% 30.04 in 10.0 mi West 12.7 mph - N/A   Clear
6:53 AM 54.0 °F 46.9 °F 77% 30.08 in 10.0 mi West 12.7 mph - N/A   Clear
7:53 AM 59.0 °F 48.0 °F 67% 30.10 in 10.0 mi West 11.5 mph - N/A   Clear
8:53 AM 63.0 °F 48.9 °F 60% 30.11 in 10.0 mi West 11.5 mph - N/A   Clear
9:53 AM 68.0 °F 50.0 °F 52% 30.12 in 10.0 mi West 9.2 mph - N/A   Clear
10:53 AM 75.9 °F 50.0 °F 40% 30.10 in 10.0 mi NNW 6.9 mph - N/A   Clear
11:53 AM 78.1 °F 46.9 °F 33% 30.09 in 10.0 mi Variable 3.5 mph - N/A   Clear
12:53 PM 79.0 °F 44.1 °F 29% 30.07 in 10.0 mi SSW 4.6 mph - N/A   Clear
1:53 PM 81.0 °F 45.0 °F 28% 30.05 in 10.0 mi North - - N/A   Clear
2:53 PM 82.0 °F 45.0 °F 27% 30.04 in 10.0 mi Variable 5.8 mph - N/A   Clear
3:53 PM 82.9 °F 39.0 °F 21% 30.03 in 10.0 mi Variable 3.5 mph - N/A   Clear
4:53 PM 82.0 °F 39.9 °F 22% 30.03 in 10.0 mi ENE 4.6 mph - N/A   Clear
5:53 PM 80.1 °F 43.0 °F 27% 30.04 in 10.0 mi East 3.5 mph - N/A   Clear
6:53 PM 77.0 °F 37.0 °F 24% 30.05 in 10.0 mi Calm Calm - N/A   Clear
7:53 PM 71.1 °F 41.0 °F 34% 30.07 in 10.0 mi East 6.9 mph - N/A   Clear
8:53 PM 66.0 °F 45.0 °F 47% 30.08 in 10.0 mi SE 5.8 mph - N/A   Clear
9:53 PM 64.9 °F 46.9 °F 52% 30.09 in 10.0 mi South 8.1 mph - N/A   Clear
10:53 PM 63.0 °F 48.9 °F 60% 30.07 in 10.0 mi South 9.2 mph - N/A   Clear
11:53 PM 63.0 °F 48.9 °F 60% 30.07 in 10.0 mi South 13.8 mph - N/A   Clear